NOAA 17 DEB, 49479

Orbit data source: Space-Track

NOAA 17 DEB, 49479 is space debris in SSO originally from a launch on Mon, 24 Jun 2002 UTC launched from the Air Force Western Test Range (AFWTR). Debris objects in space refer to the collection of defunct objects orbiting the Earth. Examples of debris include non-operational satellites, rocket bodies, and fragments generated from explosions, collisions, or faulty payload assembly.

Loading next visibility...
Identifier
49479, 2002-032DH
Orbit
SSO
Country
Flag of USUS
Related business
Manufacturer
Unknown
Mission
Spacecraft
Bus & Motor
Unknown
Mass
Unknown
Launch date (UTC)
2002-06-24 (23 years ago)
Launch vehicle
Unknown
Launch site
Air Force Western Test Range (AFWTR)
Object type
Payload
Rocket body
Debris
Shape & HBR
Unknown shape, 0.1 m
Radar Cross Section
Small (<0.1 m²)

Expand to show TLE details & history
Last TLE update: 3 days ago

TLE from 3 days ago
0 NOAA 17 DEB
1 49479U 02032DH  25346.30709861  .00001604  00000-0  44366-3 0  9991
2 49479  98.8385  17.7581 0062043 225.0208 134.5945 14.47057041237869
Epoch: 2025-12-12T07:22Z
TLE epoch observation values (Epoch: 2025-12-12T07:22:13.319Z)
Latitude
-0.00002°
Longitude
-174.04799°
Altitude
769.354 km
Speed
7.453 km/s
True Right ascension
01h 11m 01s
True Declination
0° 00' 00"
Sunlit
Object was in daylight at epoch
Visualization orbit readout
Latitude
Unknown
Longitude
Unknown
Altitude
Unknown
Speed
Unknown
Apparent Right ascension
Unknown
Apparent Declination
Unknown
Sunlit
N/A
Visualization observer readout
Local Sidereal Time
13:19:56
Azimuth
Unknown
Elevation
Unknown
Doppler factor
Unknown
Orbital elements
Apogee altitude
776.521 km
Perigee altitude
688.29 km
Semi-major axis
7,110.542 km
Eccentricity
0.0062
Inclination
98.8385°
RAAN
17.7581°
Arg. of periapsis
225.0208°
True anomaly
135.09802°
Mean anomaly
134.5945°
Eccentric anomaly
134.84653°
Mean motion
3.61984 °/min
Orbital period
99.45 mins
BSTAR
0.00044366
Loading maneuver chart data...
Computing Atmospheric mass density...
Loading historical data...
Loading historical data...
Loading historical data...
Loading historical data...
Loading historical data...
Loading historical data...
Loading historical data...

Documentation

Showing up to 5 results
|